Cut Bank, MT

11:19 PM MST on November 19, 2019 (GMT -0700)
Cut Bank Municipal

Weather History for KCTB - September, 2019

Change the Weather History Date:

Monday, September 30, 2019

  Actual Average Record
Temperature  
Mean Temperature 21 °F 49 °F  
Max Temperature 30 °F 62 °F 89 °F (1992)
Min Temperature 10 °F 35 °F 19 °F (1959)
Degree Days  
Heating Degree Days 44 16  
Month to date heating degree days 345  
Since 1 July heating degree days 537  
Cooling Degree Days 0 0  
Month to date cooling degree days 8  
Year to date cooling degree days 161  
Moisture  
Dew Point 19 °F    
Average Humidity 86    
Maximum Humidity 96    
Minimum Humidity 72    
Precipitation  
Precipitation 0.00 in 0.03 in 0.69 in (1977)
Month to date precipitation 1.22  
Year to date precipitation 9.88  
Snow  
Snow - - - ()
Snow Depth -    
Sea Level Pressure  
Sea Level Pressure 30.15 in    
Wind  
Wind Speed 13 mph ()    
Max Wind Speed 22 mph    
Max Gust Speed -    
Visibility 6.7 miles    
Events Fog , Snow    
T = Trace of Precipitation, MM = Missing Value Source: Averaged Metar Reports

Daily Weather History Graph

Daily Weather History Graph

Search for Another Location

Airport or City:

Astronomy

Sep. 30, 2019 Rise Set
Actual Time 7:27 AM MDT 7:10 PM MDT
Civil Twilight 6:56 AM MDT 7:42 PM MDT
Nautical Twilight 6:19 AM MDT 8:18 PM MDT
Astronomical Twilight 5:42 AM MDT 8:55 PM MDT
Moon 9:43 AM MDT (9/30) 8:38 PM MDT (9/30)
Length of Visible Light 12h 46m
Length of Day
11h 43m
Waxing Crescent, 6% of the Moon is Illuminated
Sep 30
Waxing Crescent
Oct 5
First Quarter
Oct 13
Full
Oct 21
Last Quarter
Oct 27
New

Hourly Weather History & Observations

Time (MDT) Temp. Windchill Dew Point Humidity Pressure Visibility Wind Dir Wind Speed Gust Speed Precip Events Conditions
12:02 AM 26.1 °F 12.0 °F 23.0 °F 88% 30.02 in 3.0 mi North 20.7 mph - 0.00 in Snow Light Snow
12:43 AM 26.1 °F 12.7 °F 23.0 °F 88% 30.02 in 9.0 mi North 18.4 mph - 0.00 in   Overcast
12:56 AM 26.1 °F 12.7 °F 23.0 °F 88% 30.14 in 10.0 mi North 18.4 mph - 0.00 in   Overcast
1:32 AM 26.1 °F 12.3 °F 23.0 °F 88% 30.02 in 5.0 mi NNW 19.6 mph - 0.00 in Snow Light Snow
1:54 AM 26.6 °F 13.4 °F 23.0 °F 86% 30.03 in 4.0 mi NNW 18.4 mph - 0.00 in Snow Light Snow
1:56 AM 26.1 °F 13.1 °F 23.0 °F 88% 30.15 in 4.0 mi NNW 17.3 mph - 0.00 in Snow Light Snow
2:08 AM 26.1 °F 13.1 °F 23.0 °F 88% 30.04 in 2.0 mi NNW 17.3 mph - 0.00 in Snow Light Snow
2:28 AM 26.1 °F 13.1 °F 23.0 °F 88% 30.04 in 2.5 mi North 17.3 mph - 0.00 in Snow Light Snow
2:39 AM 26.1 °F 13.6 °F 23.0 °F 88% 30.04 in 3.0 mi NNW 16.1 mph - 0.00 in Snow Light Snow
2:54 AM 24.8 °F 10.3 °F 23.0 °F 93% 30.03 in 3.0 mi NNW 20.7 mph - 0.00 in Snow Light Snow
2:56 AM 25.0 °F 10.2 °F 23.0 °F 92% 30.14 in 3.0 mi NNW 21.9 mph - 0.00 in Snow Light Snow
3:56 AM 25.0 °F 10.9 °F 21.9 °F 88% 30.14 in 6.0 mi NNW 19.6 mph - 0.00 in Snow Light Snow
4:56 AM 24.1 °F 10.1 °F 21.0 °F 88% 30.14 in 10.0 mi NNW 18.4 mph - 0.00 in   Mostly Cloudy
5:07 AM 24.1 °F 11.0 °F 21.0 °F 88% 30.03 in 10.0 mi NNW 16.1 mph - N/A   Mostly Cloudy
5:56 AM 25.0 °F 11.7 °F 21.9 °F 88% 30.15 in 10.0 mi NW 17.3 mph - N/A   Overcast
6:56 AM 25.0 °F 12.6 °F 21.9 °F 88% 30.16 in 10.0 mi NNW 15.0 mph - N/A   Overcast
7:56 AM 25.0 °F 14.2 °F 21.9 °F 88% 30.18 in 10.0 mi NW 11.5 mph - N/A   Overcast
8:56 AM 25.0 °F 13.6 °F 21.9 °F 88% 30.19 in 10.0 mi NW 12.7 mph - N/A   Overcast
9:56 AM 27.0 °F 16.7 °F 23.0 °F 85% 30.20 in 10.0 mi NW 11.5 mph - N/A   Overcast
10:51 AM 28.4 °F 16.6 °F 23.0 °F 80% 30.08 in 10.0 mi NW 16.1 mph - N/A   Overcast
10:56 AM 28.0 °F 16.1 °F 23.0 °F 81% 30.20 in 10.0 mi NW 16.1 mph - N/A   Overcast
11:56 AM 28.9 °F 17.3 °F 23.0 °F 78% 30.20 in 10.0 mi NW 16.1 mph - N/A   Overcast
12:56 PM 28.9 °F 18.2 °F 23.0 °F 78% 30.20 in 10.0 mi NW 13.8 mph - N/A   Mostly Cloudy
1:07 PM 28.9 °F 17.7 °F 23.0 °F 78% 30.09 in 10.0 mi NW 15.0 mph - N/A   Scattered Clouds
1:32 PM 30.0 °F 19.1 °F 23.0 °F 75% 30.09 in 10.0 mi NW 15.0 mph - N/A   Mostly Cloudy
1:56 PM 28.9 °F 17.3 °F 21.9 °F 75% 30.20 in 10.0 mi NW 16.1 mph - N/A   Overcast
2:56 PM 28.9 °F 19.2 °F 21.9 °F 75% 30.22 in 10.0 mi NNW 11.5 mph - N/A   Overcast
3:56 PM 28.0 °F 17.5 °F 21.0 °F 75% 30.22 in 10.0 mi NNW 12.7 mph - N/A   Overcast
4:49 PM 28.9 °F 19.2 °F 21.0 °F 72% 30.10 in 10.0 mi North 11.5 mph - N/A   Scattered Clouds
4:56 PM 28.9 °F 19.2 °F 21.0 °F 72% 30.22 in 10.0 mi North 11.5 mph - N/A   Partly Cloudy
5:56 PM 26.1 °F - 19.9 °F 78% 30.24 in 10.0 mi Calm Calm - N/A   Clear
6:56 PM 21.0 °F 16.2 °F 17.1 °F 85% 30.27 in 10.0 mi West 3.5 mph - N/A   Scattered Clouds
7:20 PM 21.0 °F 16.2 °F 18.0 °F 88% 30.14 in 10.0 mi West 3.5 mph - N/A   Mostly Cloudy
7:45 PM 19.9 °F - 16.0 °F 85% 30.14 in 10.0 mi Calm Calm - N/A   Scattered Clouds
7:56 PM 18.0 °F - 16.0 °F 92% 30.28 in 10.0 mi Calm Calm - N/A   Scattered Clouds
8:56 PM 15.1 °F 9.4 °F 12.9 °F 91% 30.30 in 8.0 mi WSW 3.5 mph - N/A   Scattered Clouds
9:04 PM 17.1 °F 11.7 °F 14.0 °F 88% 30.15 in 8.0 mi West 3.5 mph - N/A   Mostly Cloudy
9:30 PM 14.0 °F - 12.9 °F 95% 30.15 in 9.0 mi Calm Calm - N/A   Scattered Clouds
9:56 PM 19.0 °F - 16.0 °F 88% 30.27 in 9.0 mi Calm Calm - N/A   Clear
10:07 PM 16.0 °F 8.8 °F 15.1 °F 96% 30.13 in 1.5 mi SW 4.6 mph - N/A   Partly Cloudy
10:09 PM 17.1 °F 8.7 °F 15.1 °F 92% 30.13 in 0.8 mi SW 5.8 mph - N/A   Mist
10:20 PM 16.0 °F 7.4 °F 14.0 °F 92% 30.13 in 0.2 mi SW 5.8 mph - N/A Fog Light Freezing Fog
10:46 PM 17.1 °F 10.0 °F 14.0 °F 88% 30.13 in 0.5 mi WSW 4.6 mph - N/A Fog Light Freezing Fog
10:56 PM 17.1 °F 10.0 °F 15.1 °F 92% 30.27 in 1.2 mi WSW 4.6 mph - N/A   Partly Cloudy
11:02 PM 17.1 °F 11.7 °F 15.1 °F 92% 30.13 in 3.0 mi WSW 3.5 mph - N/A   Clear
11:06 PM 16.0 °F 10.4 °F 15.1 °F 96% 30.13 in 1.8 mi Variable 3.5 mph - N/A   Partly Cloudy
11:09 PM 12.9 °F - 12.0 °F 96% 30.13 in 0.8 mi Calm Calm - N/A   Mist
11:20 PM 12.9 °F - 10.9 °F 92% 30.13 in 0.2 mi Calm Calm - N/A Fog Light Freezing Fog
11:56 PM 10.0 °F - 7.0 °F 87% 30.27 in 0.2 mi Calm Calm - N/A Fog Light Freezing Fog